Regional Weather Roundup
Issued by NWS Columbia, SC

Home | Current Version | Previous Version | Text Only | Print | Product List | Glossary On
Versions: 1 2 3 4 5 6 7 8 9 10 11 12 13 14 15 16 17 18 19 20 21 22 23 24 25 26 27 28 29 30 31 32 33 34 35 36 37 38 39 40 41 42 43 44 45 46 47 48 49 50
000
ASUS42 KCAE 180510
RWRCAE
REGIONAL WEATHER ROUNDUP
NATIONAL WEATHER SERVICE COLUMBIA SC
100 AM EDT THU SEP 18 2014

NOTE: "FAIR" INDICATES FEW OR NO CLOUDS BELOW 12,000 FEET WITH NO
SIGNIFICANT WEATHER AND/OR OBSTRUCTIONS TO VISIBILITY.

NOT ALL STATIONS ARE QUALITY CONTROLLED BY THE NATIONAL
WEATHER SERVICE. USE DATA WITH CAUTION...ESPECIALLY
DEWPOINT OBSERVATIONS.

SCZ001>056-GAZ040-063>065-077-180600-
...UPSTATE SOUTH CAROLINA...

CITY           SKY/WX    TMP DP  RH WIND       PRES   REMARKS
ANDERSON       MOCLDY    66  64  93 CALM      29.97F
LIBERTY        FAIR      66  65  96 MISG      29.97F
SPARTANBURG    FAIR      68  68 100 CALM      29.97F
CLEMSON        MOCLDY    70  63  78 CALM      29.98F
GREENVILLE     CLOUDY    68  63  84 CALM      29.98F
GREENWOOD      PTCLDY    65  62  90 NW3       29.97F FOG
GREER          MOCLDY    66  64  93 CALM      29.97F
ROCK HILL      PTCLDY    62  62 100 CALM      29.96F FOG
CHESTER        MOCLDY    68  64  88 CALM      30.01F
LAURENS        FAIR      63 N/A N/A N3        29.98S FOG


...CENTRAL SOUTH CAROLINA...

CITY           SKY/WX    TMP DP  RH WIND       PRES   REMARKS
COLUMBIA APT   PTCLDY    71  67  87 CALM      29.93F
COLUMBIA OWENS PTCLDY    69  66  90 CALM      29.94F
DARLINGTON     MOCLDY    70  66  88 NE3       29.94S
FLORENCE       MOCLDY    70  67  90 CALM      29.92S
MCENTIRE ANGB  CLEAR     67  67  99 NW3       29.94S
ORANGEBURG     PTCLDY    70  67  90 CALM      29.93F
SUMTER SHAW    MOCLDY    70  66  85 CALM      29.92S
NEWBERRY       FAIR      64  64 100 N3        29.98F FOG
AIKEN          FAIR      68  68 100 CALM      29.97F FOG
BARNWELL       FAIR      68  68 100 CALM      29.93F
MANNING        FAIR      70 N/A N/A CALM      29.93F
CAMDEN         FAIR      66  66 100 CALM      29.95S FOG
LANCASTER      RAIN      64  64 100 CALM      29.96S VSB 3/4
WINNSBORO      FAIR      64  64 100 N3        29.95F FOG


...EASTERN AND COASTAL SOUTH CAROLINA...

CITY           SKY/WX    TMP DP  RH WIND       PRES   REMARKS
MYRTLE BEACH   CLOUDY    73  68  83 N5        29.91F
N MYRTLE BCH   MOCLDY    72  68  87 NE8       29.90F
CONWAY         CLOUDY    72  72 100 NE3       29.91F
HARTSVILLE     FAIR      70  68  94 CALM      29.94S
FLORENCE       MOCLDY    70  67  90 CALM      29.92S
DARLINGTON     MOCLDY    70  66  88 NE3       29.94S
CHARLESTON APT PTCLDY    72  68  87 CALM      29.92S
MOUNT PLEASANT FAIR      70  70 100 CALM      29.91F FOG
WALTERBORO     MOCLDY    70 N/A N/A CALM      29.93S
BEAUFORT       MOCLDY    71  69  93 CALM      29.92F


...EASTERN GEORGIA...

CITY           SKY/WX    TMP DP  RH WIND       PRES   REMARKS
AUGUSTA BUSH F FOG       66  66 100 CALM      29.92F VSB 1/4
AUGUSTA DANIEL CLEAR     71  69  93 CALM      29.94F
THOMSON        MOCLDY    71  71 100 CALM      29.99S
WASHINGTON     MOCLDY    70  70 100 NE3       29.95F
CLAXTON        FAIR      72  72 100 CALM      29.92S
SYLVANIA       MOCLDY    71  71  99 CALM      29.93S FOG
STATESBORO     PTCLDY    69  69 100 CALM      29.92S
SAVANNAH       MOCLDY    73  68  83 N3        29.91F


...SOUTHERN NORTH CAROLINA...

CITY           SKY/WX    TMP DP  RH WIND       PRES   REMARKS
CHARLOTTE      PTCLDY    64  62  93 NW5       29.97S
MONROE         PTCLDY    66  63  90 NE5       29.95S
WADESBORO      PTCLDY    67  66  94 CALM      29.95S FOG
ROCKINGHAM     PTCLDY    68  67  96 CALM      29.94S FOG
RUTHERFORDTON  CLEAR     61  61  99 CALM      29.99F FOG
ASHEVILLE      CLOUDY    61  59  93 CALM      30.02F

$$


USA.gov is the U.S. government's official web portal to all federal, state and local government web resources and services.